Weather reports worldwide

Advertisment
Stuttgart, Germany (10739): temperature & dewpoint: 10.09.2019 05:00:00 - 16.09.2019 05:00:00 (CEST)Stuttgart, Germany (10739): temperature 5cm & temperature -5cm: 10.09.2019 05:00:00 - 16.09.2019 05:00:00 (CEST)Stuttgart, Germany (10739): temperature -20cm & temperature -100cm: 10.09.2019 05:00:00 - 16.09.2019 05:00:00 (CEST)Stuttgart, Germany (10739): wind speed & gusts: 10.09.2019 05:00:00 - 16.09.2019 05:00:00 (CEST)Stuttgart, Germany (10739): wind direction: 10.09.2019 05:00:00 - 16.09.2019 05:00:00 (CEST)Stuttgart, Germany (10739): reduced air pressure: 10.09.2019 05:00:00 - 16.09.2019 05:00:00 (CEST)Stuttgart, Germany (10739): visibility: 10.09.2019 05:00:00 - 16.09.2019 05:00:00 (CEST)Stuttgart, Germany (10739): sunshine duration: 10.09.2019 05:00:00 - 16.09.2019 05:00:00 (CEST)Stuttgart, Germany (10739): precipitation: 10.09.2019 05:00:00 - 16.09.2019 05:00:00 (CEST)
Date & Time tt [°C] td [°C] tt 5cm [°C] tt -5cm [°C] tt -20cm [°C] tt -100cm [°C] ff [km/h] ff [kn] fx [km/h] fx [kn] dd ppp [hPa] vv [km] sd [min] rr [mm]
16.09.2019 05:00:00 13,9 13,2 12,5 15,6 20,0 18,5 6 4 13 7 S 1021,1 25 0 0,0
16.09.2019 04:00:00 13,9 13,0 12,1 16,2 20,3 18,5 4 2 17 9 SSE 1021,5 28 0 0,0
16.09.2019 03:00:00 15,6 13,7 14,5 16,9 20,6 18,5 13 7 16 9 S 1021,3 45 0 0,0
16.09.2019 02:00:00 16,4 13,5 14,7 17,2 21,0 18,5 11 6 13 7 SSE 1021,6 48 0 0,0
16.09.2019 01:00:00 17,1 13,4 15,2 17,7 21,4 18,5 9 5 12 6 SSE 1021,8 57 0 0,0
16.09.2019 00:00:00 17,8 13,3 15,8 18,3 21,8 18,5 9 5 11 6 SSE 1021,8 59 0 0,0
15.09.2019 23:00:00 19,0 12,5 15,5 19,1 22,2 18,5 3 2 8 4 SSE 1021,7 65 0 0,0
15.09.2019 22:00:00 20,8 12,2 16,1 20,1 22,6 18,5 5 3 6 3 WSW 1021,4 75 0 0,0
15.09.2019 21:00:00 22,1 11,5 17,1 21,4 22,9 18,5 4 2 5 3 ENE 1021,0 75 0 0,0
15.09.2019 20:00:00 22,8 11,7 18,4 23,1 23,0 18,3 4 2 16 8 NNW 1020,4 62 39 0,0
15.09.2019 19:00:00 24,7 12,0 23,5 25,6 23,0 18,3 11 6 26 14 NW 1020,3 74 60 0,0
15.09.2019 18:00:00 25,6 13,3 27,5 28,6 22,8 18,3 15 8 23 12 NNW 1020,4 75 60 0,0
15.09.2019 17:00:00 26,3 14,4 30,0 31,0 22,3 18,3 13 7 24 13 NW 1020,6 63 60 0,0
15.09.2019 16:00:00 25,9 15,3 32,3 31,9 21,6 18,3 9 5 19 10 NNW 1021,2 75 60 0,0
15.09.2019 15:00:00 25,3 15,2 32,0 32,6 20,8 18,3 8 4 17 9 NNW 1021,9 75 60 0,0
15.09.2019 14:00:00 24,6 15,2 31,2 31,5 20,0 18,3 8 4 17 9 N 1022,8 75 60 0,0
15.09.2019 13:00:00 23,7 14,4 29,8 29,9 19,2 18,3 6 4 13 7 NNW 1023,4 72 60 0,0
15.09.2019 12:00:00 22,3 14,9 27,2 27,2 18,6 18,3 6 3 14 7 WNW 1024,2 43 60 0,0
15.09.2019 11:00:00 19,9 13,9 24,3 23,7 18,2 18,3 4 2 8 4 ENE 1024,8 52 60 0,0
15.09.2019 10:00:00 17,9 13,5 21,1 19,5 18,2 18,4 5 3 15 8 ESE 1025,0 38 60 0,0
15.09.2019 09:00:00 15,4 12,9 16,6 16,3 18,3 18,4 12 6 15 8 SE 1025,4 37 50 0,0
15.09.2019 08:00:00 13,6 12,6 12,9 14,8 18,6 18,4 9 5 19 10 SE 1025,6 30 14 0,0
15.09.2019 07:00:00 13,2 12,5 12,3 14,7 18,9 18,4 16 8 19 10 SSE 1025,6 26 0 0,0
15.09.2019 06:00:00 13,2 12,6 12,1 14,9 19,2 18,4 10 6 14 8 SSE 1025,7 26 0 0,0
15.09.2019 05:00:00 13,1 12,6 11,9 15,0 19,5 18,4 9 5 10 5 SSE 1026,1 27 0 0,0
15.09.2019 04:00:00 13,7 13,0 12,3 15,7 19,8 18,4 7 4 9 5 SE 1026,3 29 0 0,0
15.09.2019 03:00:00 14,1 13,1 12,4 16,2 20,2 18,4 8 4 17 9 SSE 1026,6 32 0 0,0
15.09.2019 02:00:00 15,4 13,5 14,2 16,6 20,6 18,4 14 8 17 9 S 1026,6 41 0 0,0
15.09.2019 01:00:00 15,1 13,2 12,8 17,0 21,0 18,4 4 2 6 3 ESE 1027,2 35 0 0,0
15.09.2019 00:00:00 16,5 13,0 12,9 17,7 21,4 18,4 5 3 6 3 W 1027,4 54 0 0,0
14.09.2019 23:00:00 17,7 13,0 14,4 18,7 21,8 18,4 2 1 5 3 N 1027,7 55 0 0,0
14.09.2019 22:00:00 19,1 13,0 15,6 19,7 22,2 18,4 5 3 9 5 NNW 1027,7 56 0 0,0
14.09.2019 21:00:00 20,0 13,1 16,4 20,9 22,5 18,4 6 3 11 6 NW 1027,5 75 0 0,0
14.09.2019 20:00:00 20,8 13,1 18,2 22,8 22,6 18,2 8 4 16 9 N 1027,4 74 32 0,0
14.09.2019 19:00:00 22,5 13,2 22,3 25,2 22,6 18,2 6 4 17 9 NNE 1027,1 66 50 0,0
14.09.2019 18:00:00 23,6 12,8 26,1 28,7 22,3 18,2 6 4 16 9 NE 1027,0 75 60 0,0
14.09.2019 17:00:00 23,7 13,3 28,8 30,0 21,8 18,2 9 5 18 10 NNE 1027,1 75 56 0,0
14.09.2019 16:00:00 23,3 12,9 27,0 30,4 21,2 18,2 8 4 18 10 N 1027,9 66 60 0,0
14.09.2019 15:00:00 23,0 13,4 28,8 31,1 20,5 18,2 8 4 17 9 NE 1028,6 74 60 0,0
14.09.2019 14:00:00 21,9 13,4 26,6 29,8 19,7 18,2 6 4 17 9 ENE 1029,3 66 60 0,0
14.09.2019 13:00:00 21,1 13,5 26,3 28,2 19,0 18,2 4 2 12 6 NE 1029,9 58 60 0,0
14.09.2019 12:00:00 19,6 13,8 25,8 25,7 18,5 18,2 6 3 12 6 N 1030,6 34 60 0,0
14.09.2019 11:00:00 18,2 13,9 23,0 21,9 18,4 18,4 7 4 16 9 ENE 1031,0 45 33 0,0
14.09.2019 10:00:00 16,4 13,4 19,5 18,6 18,4 18,4 8 5 14 7 N 1031,8 41 5 0,0
14.09.2019 09:00:00 15,3 13,3 16,2 17,0 18,5 18,4 7 4 11 6 WNW 1031,8 33 21 0,0
14.09.2019 08:00:00 14,5 13,2 13,5 15,7 18,7 18,4 6 4 11 6 WNW 1031,6 32 13 0,0
14.09.2019 07:00:00 14,8 13,5 14,2 16,4 18,9 18,4 5 3 8 4 WNW 1031,1 17 0 0,0
14.09.2019 06:00:00 15,1 13,8 14,7 16,6 19,1 18,4 4 2 9 5 W 1031,2 36 0 0,0
14.09.2019 05:00:00 15,4 13,7 15,2 16,8 19,3 18,4 7 4 9 5 NW 1031,4 47 0 0,0
14.09.2019 04:00:00 15,5 13,7 14,2 16,8 19,5 18,4 5 3 8 5 WNW 1031,6 54 0 0,0
14.09.2019 03:00:00 15,7 13,7 14,7 16,9 19,8 18,4 7 4 8 5 W 1031,9 54 0 0,0
14.09.2019 02:00:00 16,1 13,9 14,4 17,3 20,0 18,4 6 4 8 5 WNW 1031,9 58 0 0,0
14.09.2019 01:00:00 17,1 14,0 15,7 17,9 20,4 18,4 3 1 6 3 NNW 1031,8 54 0 0,0
14.09.2019 00:00:00 16,9 13,8 14,4 17,9 20,7 18,4 5 3 8 4 WNW 1032,0 66 0 0,0
13.09.2019 23:00:00 17,6 13,8 14,9 18,8 21,0 18,4 5 3 12 7 WNW 1031,8 58 0 0,0
13.09.2019 22:00:00 18,8 13,9 17,0 19,9 21,3 18,4 8 5 12 7 NNW 1031,5 63 0 0,0
13.09.2019 21:00:00 19,5 14,0 18,7 20,9 21,6 18,4 7 4 14 8 NW 1031,4 69 0 0,0
13.09.2019 20:00:00 20,0 13,7 18,0 21,8 21,8 18,4 9 5 18 10 NNW 1031,0 70 22 0,0
13.09.2019 19:00:00 21,2 13,3 20,9 23,9 21,6 18,2 10 5 25 13 N 1030,8 73 49 0,0
13.09.2019 18:00:00 22,1 13,7 24,7 27,0 21,4 18,2 12 7 29 16 NNW 1030,5 75 59 0,0
13.09.2019 17:00:00 22,6 13,7 26,9 28,2 20,9 18,2 11 6 31 17 N 1030,4 65 51 0,0
13.09.2019 16:00:00 23,0 12,9 29,7 29,0 20,3 18,2 12 6 22 12 NNW 1030,5 49 60 0,0
13.09.2019 15:00:00 22,9 14,2 29,7 29,7 19,6 18,2 10 6 23 12 NW 1030,8 46 60 0,0
13.09.2019 14:00:00 22,1 13,9 27,5 27,9 19,0 18,2 13 7 25 14 WNW 1031,5 54 48 0,0
13.09.2019 13:00:00 20,9 14,0 25,1 25,8 18,3 18,2 16 9 34 18 NW 1031,7 60 44 0,0
13.09.2019 12:00:00 20,9 14,2 26,1 25,2 17,7 18,2 16 9 27 15 NW 1031,6 75 60 0,0
13.09.2019 11:00:00 20,7 13,3 25,6 23,2 17,3 18,2 4 2 11 6 NW 1031,7 72 60 0,0
13.09.2019 10:00:00 17,7 12,5 20,7 19,3 17,2 18,4 5 3 14 7 SSE 1031,9 47 60 0,0
13.09.2019 09:00:00 15,9 12,4 17,6 15,9 17,3 18,4 10 5 14 8 SSE 1031,9 56 60 0,0
13.09.2019 08:00:00 13,9 12,0 13,2 14,0 17,5 18,4 11 6 18 10 SSE 1032,1 46 19 0,0
13.09.2019 07:00:00 13,2 11,9 12,4 14,0 17,8 18,4 14 8 18 10 SSE 1031,8 47 0 0,0
13.09.2019 06:00:00 13,6 12,3 12,7 14,4 18,0 18,4 12 7 15 8 SSE 1031,7 42 0 0,0
13.09.2019 05:00:00 13,9 12,5 13,0 14,7 18,3 18,4 13 7 16 9 SSE 1031,6 53 0 0,0
13.09.2019 04:00:00 14,4 12,9 13,5 15,1 18,6 18,4 13 7 18 10 SSE 1031,4 55 0 0,0
13.09.2019 03:00:00 15,1 13,2 13,9 15,6 18,9 18,4 10 6 16 8 SSE 1031,4 60 0 0,0
13.09.2019 02:00:00 15,6 13,2 14,3 16,0 19,2 18,4 11 6 14 7 S 1031,5 55 0 0,0
13.09.2019 01:00:00 16,6 13,0 14,9 16,6 19,5 18,4 9 5 12 7 S 1031,1 64 0 0,0
13.09.2019 00:00:00 17,8 13,3 16,6 17,3 19,8 18,4 8 5 10 6 S 1031,1 69 0 0,0
12.09.2019 23:00:00 17,5 13,2 14,1 17,5 20,2 18,4 4 2 8 4 SSE 1031,2 75 0 0,0
12.09.2019 22:00:00 19,3 12,7 15,8 18,4 20,5 18,4 7 4 11 6 W 1030,7 73 0 0,0
12.09.2019 21:00:00 20,3 12,7 15,6 19,4 20,7 18,3 6 3 9 5 W 1030,2 69 0 0,0
12.09.2019 20:00:00 20,6 12,7 17,3 21,1 20,8 18,3 7 4 15 8 NW 1029,9 70 43 0,0
12.09.2019 19:00:00 22,5 12,5 22,4 23,4 20,8 18,3 10 5 20 11 NNW 1029,5 75 60 0,0
12.09.2019 18:00:00 23,2 12,1 24,9 25,7 20,5 18,3 10 6 23 13 NW 1029,3 75 46 0,0
12.09.2019 17:00:00 23,8 12,4 28,8 28,1 20,0 18,3 9 5 24 13 NNW 1029,3 75 58 0,0
12.09.2019 16:00:00 23,4 11,5 28,7 28,1 19,4 18,3 11 6 26 14 W 1029,7 75 50 0,0
12.09.2019 15:00:00 22,7 11,9 25,5 27,4 18,7 18,3 9 5 21 11 NW 1030,0 65 25 0,0
12.09.2019 14:00:00 22,5 11,0 27,0 27,8 18,0 18,3 12 7 25 14 WNW 1030,1 19 43 0,0
12.09.2019 13:00:00 22,0 10,6 25,6 26,8 17,3 18,3 13 7 20 11 WNW 1030,6 75 55 0,0
12.09.2019 12:00:00 20,6 9,2 24,1 24,4 16,8 18,4 6 3 11 6 WSW 1030,8 53 37 0,0
12.09.2019 11:00:00 19,8 10,7 21,8 20,3 16,6 18,5 3 2 11 6 W 1030,8 73 2 0,0
12.09.2019 10:00:00 18,6 9,7 20,2 18,7 16,4 18,5 7 4 16 9 WSW 1030,2 58 32 0,0
12.09.2019 09:00:00 17,0 8,7 16,6 15,6 16,5 18,6 9 5 16 9 SSW 1029,7 58 12 0,0
12.09.2019 08:00:00 16,6 9,8 16,5 14,6 16,6 18,6 5 3 17 9 S 1029,2 60 16 0,0
12.09.2019 07:00:00 16,2 8,8 15,1 14,2 16,7 18,6 13 7 20 11 S 1028,8 70 0 0,0
12.09.2019 06:00:00 16,1 9,4 14,7 14,7 16,8 18,6 12 7 16 9 S 1028,5 67 0 0,0
12.09.2019 05:00:00 17,6 8,7 16,7 15,0 16,9 18,6 8 4 16 9 SSW 1028,3 73 0 0,0
12.09.2019 04:00:00 16,9 8,5 15,0 14,9 17,1 18,6 9 5 16 9 SSW 1028,1 65 0 0,0
12.09.2019 03:00:00 17,0 8,6 16,2 15,2 17,2 18,6 10 5 16 9 SW 1028,0 75 0 0,0
12.09.2019 02:00:00 17,0 8,5 16,2 15,1 17,4 18,7 10 5 21 11 SW 1027,7 72 0 0,0
12.09.2019 01:00:00 17,4 8,3 16,4 15,5 17,6 18,7 10 5 19 11 SW 1027,4 75 0 0,0
12.09.2019 00:00:00 16,8 8,7 16,0 15,7 17,8 18,7 10 6 19 10 WSW 1027,3 61 0 0,0
11.09.2019 23:00:00 17,0 8,2 16,2 15,9 18,1 18,7 8 4 17 9 SSW 1027,1 74 0 0,0
11.09.2019 22:00:00 17,1 7,6 16,0 16,4 18,3 18,7 5 3 14 7 SSW 1026,8 49 0 0,0
11.09.2019 21:00:00 17,5 7,6 16,4 16,9 18,6 18,7 7 4 17 9 WSW 1026,1 70 0 0,0
11.09.2019 20:00:00 17,7 7,2 16,5 17,6 18,8 18,7 10 5 23 13 W 1025,4 56 0 0,0
11.09.2019 19:00:00 18,8 6,9 17,9 18,8 18,8 18,7 16 9 33 18 WNW 1024,8 67 0 0,0
11.09.2019 18:00:00 19,6 6,2 19,0 21,0 18,7 18,8 22 12 36 20 WNW 1024,2 75 11 0,0
11.09.2019 17:00:00 21,2 7,5 24,2 25,1 18,2 18,8 9 5 21 12 WNW 1023,4 61 57 0,0
11.09.2019 16:00:00 20,7 8,1 25,5 25,2 17,6 18,8 12 7 24 13 NNW 1023,3 42 56 0,0
11.09.2019 15:00:00 20,2 9,3 24,7 25,8 17,0 18,8 9 5 16 9 NW 1023,4 38 39 0,0
11.09.2019 14:00:00 19,1 8,6 21,9 24,2 16,3 18,8 6 3 13 7 NNE 1023,6 29 31 0,0
11.09.2019 13:00:00 19,8 9,1 23,5 25,1 15,4 18,7 4 2 11 6 WNW 1023,5 25 60 0,0
11.09.2019 12:00:00 18,1 10,0 22,7 22,7 14,7 18,8 4 2 9 5 NE 1024,0 36 59 0,0
11.09.2019 11:00:00 16,1 9,5 20,2 19,1 14,3 18,9 4 2 12 6 ESE 1024,3 44 60 0,0
11.09.2019 10:00:00 12,9 8,8 15,2 14,8 14,1 18,9 10 5 15 8 SE 1024,4 34 60 0,0
11.09.2019 09:00:00 11,3 9,2 11,3 11,8 14,2 18,9 10 5 15 8 SE 1024,1 27 60 0,0
11.09.2019 08:00:00 9,3 8,5 8,7 9,7 14,4 18,9 10 6 15 8 SE 1024,1 20 20 0,0
11.09.2019 07:00:00 8,8 8,3 7,9 9,4 14,6 18,9 12 6 14 8 SSE 1023,5 18 0 0,0
11.09.2019 06:00:00 8,8 8,4 7,8 9,5 14,9 18,9 11 6 13 7 SSE 1022,9 16 0 0,0
11.09.2019 05:00:00 9,1 8,7 7,4 9,6 15,2 19,0 6 4 8 4 SSE 1022,5 23 0 0,0
11.09.2019 04:00:00 9,3 8,8 7,4 10,0 15,5 19,0 5 3 7 4 SSE 1022,2 22 0 0,0
11.09.2019 03:00:00 9,2 9,0 8,0 10,4 15,8 19,0 7 4 8 4 SSE 1022,1 14 0 0,0
11.09.2019 02:00:00 11,3 8,6 7,8 10,9 16,1 19,0 4 2 6 4 SW 1021,8 46 0 0,0
11.09.2019 01:00:00 11,0 9,2 8,4 11,5 16,4 19,0 4 2 6 4 SSE 1021,6 40 0 0,0
11.09.2019 00:00:00 11,8 9,5 8,3 12,1 16,8 19,0 3 2 5 3 N 1021,1 36 0 0,0
10.09.2019 23:00:00 13,7 9,0 9,8 12,9 17,1 19,1 4 2 5 3 SSE 1020,7 53 0 0,0
10.09.2019 22:00:00 14,4 8,7 9,5 13,6 17,5 19,1 2 1 6 3 N 1020,4 47 0 0,0
10.09.2019 21:00:00 15,3 8,2 11,0 14,5 17,8 19,1 5 3 9 5 NNE 1019,9 65 0 0,0
10.09.2019 20:00:00 16,2 7,7 12,3 16,0 18,0 19,1 5 3 11 6 NNW 1019,1 68 26 0,0
10.09.2019 19:00:00 17,5 7,6 16,2 18,2 18,0 19,1 9 5 16 9 NNE 1018,3 58 60 0,0
10.09.2019 18:00:00 18,6 7,5 19,9 21,0 17,7 19,0 6 4 16 8 NNE 1017,7 75 60 0,0
10.09.2019 17:00:00 18,7 6,5 21,6 22,7 17,4 19,1 5 3 16 9 NNE 1017,4 75 60 0,0
10.09.2019 16:00:00 19,0 6,7 22,1 23,2 16,8 19,1 5 3 13 7 NNW 1017,3 54 60 0,0
10.09.2019 15:00:00 18,1 4,0 22,0 23,7 16,1 19,1 5 3 18 10 NE 1017,5 75 51 0,0
10.09.2019 14:00:00 18,0 7,3 21,3 24,1 15,4 19,2 8 4 18 10 ENE 1017,3 47 52 0,0
10.09.2019 13:00:00 16,9 8,5 20,2 22,7 14,6 19,2 5 3 14 8 ENE 1017,3 36 60 0,0
10.09.2019 12:00:00 15,1 9,5 17,2 19,6 14,0 19,1 5 3 12 7 SE 1017,7 33 60 0,0
10.09.2019 11:00:00 12,6 9,3 14,0 16,5 13,7 19,3 9 5 12 7 SE 1018,1 21 44 0,0
10.09.2019 10:00:00 9,6 9,4 10,3 12,1 13,7 19,3 2 1 6 3 NNW 1017,9 8 0 0,0
10.09.2019 09:00:00 8,7 8,7 9,0 10,4 13,7 19,3 5 3 6 4 E 1017,8 2,7 0 0,0
10.09.2019 08:00:00 7,7 7,7 7,0 9,1 13,9 19,3 5 3 6 4 ESE 1017,6 0,3 0 0,0
10.09.2019 07:00:00 8,0 7,9 6,5 8,9 14,1 19,3 5 3 6 3 SE 1017,0 4,7 0 0,0
10.09.2019 06:00:00 7,8 7,8 6,4 9,3 14,3 19,3 3 1 6 3 SSE 1016,8 3,4 0 0,0
10.09.2019 05:00:00 8,1 8,0 6,4 9,2 14,5 19,4 4 2 6 3 E 1016,8 1,3 0 0,0

tt = temperature
td = dewpoint
tt 5cm = temperature 5cm
tt -5cm = temperature -5cm
tt -20cm = temperature -20cm
tt -100cm = temperature -100cm
ff = wind speed
fx = gusts
dd = wind direction
ppp = reduced air pressure
vv = visibility
sd = sunshine duration
rr = precipitation

Next stations